Regional Weather Roundup
Issued by NWS

Home | Current Version | Previous Version | Text Only | Print | Product List | Glossary On
Versions: 1 2 3 4 5 6 7 8 9 10 11 12 13 14 15 16 17 18 19 20 21 22 23 24 25 26 27 28 29 30 31 32 33 34 35 36 37 38 39 40 41 42 43 44 45 46 47 48 49 50
000
ASUS45 KBOU 291507
RWRCO

WEATHER ROUNDUP FOR COLORADO
NATIONAL WEATHER SERVICE DENVER/BOULDER CO
800 AM MST THU JAN 29 2015

NOTE: "FAIR" INDICATES FEW OR NO CLOUDS BELOW 12000 FEET WITH NO
SIGNIFICANT WEATHER AND/OR OBSTRUCTIONS TO VISIBILITY.

COZ001>005-013-030-031-291600-
...NORTHWEST COLORADO...

CITY           SKY/WX    TMP DP  RH WIND       PRES   REMARKS
CRAIG          CLOUDY    27  25  92 CALM      30.42R FOG
HAYDEN         PTCLDY    28  25  86 CALM      30.40S
MEEKER         PTCLDY    17  14  88 CALM      30.40S
MOUNT WERNER   NOT AVBL
STEAMBOAT SPGS PTCLDY    28  26  92 CALM      30.41R
WALDEN         CLOUDY    30  28  93 N5        30.42R VSB 1/2 WCI  25
$$

COZ006>008-011-291600-
...WEST CENTRAL VALLEYS...

CITY           SKY/WX    TMP DP  RH WIND       PRES   REMARKS
GRAND JUNCTION PTCLDY    32  27  81 SE14      30.36R WCI  22
MONTROSE       MOCLDY    28  24  85 SE5       30.39S WCI  23
EAGLE          PTCLDY    27  27 100 CALM      30.44S
RIFLE          PTCLDY    28  24  85 CALM      30.39S
DELTA          NOT AVBL
NUCLA          MOCLDY    30  27  86 SE5       30.38S WCI  25
$$

COZ017>023-064>068-291600-
...SOUTHWEST COLORADO...

CITY           SKY/WX    TMP DP  RH WIND       PRES   REMARKS
DURANGO        CLOUDY    31  27  85 CALM      30.37R
CORTEZ         MOCLDY    31  27  85 CALM      30.35R
PAGOSA SPRINGS CLOUDY    32  28  83 CALM      30.39R
TELLURIDE      MOCLDY    28  18  66 SE3       30.39S
WOLF CREEK PAS NOT AVBL
$$

COZ009-010-012-014-032>034-037-058>063-291600-
...CENTRAL COLORADO...

CITY           SKY/WX    TMP DP  RH WIND       PRES   REMARKS
ASPEN          CLEAR     26  16  65 SW7       30.39S WCI  18
BUENA VISTA    CLOUDY    26  19  72 W3        30.47R
COPPER MTN     CLOUDY    25  18  74 SE6       30.44S WCI  18
BERTHOUD PASS  CLOUDY    14   9  79 NW8       30.46R WCI   3
COTTONWOOD PAS MOCLDY    28  21  74 CALM      30.46R
GUNNISON       MOCLDY     7   7 100 CALM      30.47R
KREMMLING      PTCLDY    21  19  93 CALM      30.44R
LEADVILLE      MOCLDY    14  10  84 CALM      30.43R
MONARCH PASS   FOG       18  16  93 MISG      30.54S VSB<1/4
SALIDA         CLOUDY    31  22  67 CALM      30.54S
SUNLIGHT       PTCLDY    25  23  93 E5          N/A  WCI  19
WILKERSON PASS FOG       19  18  93 CALM      30.48R VSB<1/4
$$

COZ069>075-291600-
...SAN LUIS VALLEY/SANGRE DE CRISTO MOUNTAINS...

CITY           SKY/WX    TMP DP  RH WIND       PRES   REMARKS
ALAMOSA        CLOUDY    24  19  81 E3        30.41R
LA VETA PASS   NOT AVBL
SAGUACHE       CLOUDY    28  23  80 N8        30.42R WCI  20
$$

COZ035-036-038>040-291600-
...NORTHERN COLORADO FRONT RANGE...

CITY           SKY/WX    TMP DP  RH WIND       PRES   REMARKS
DENVER INTL AP CLOUDY    36  28  73 NE6       30.49R
DMNS CITY PARK   N/A     37  26  63 NE3       30.49R
AURORA         CLOUDY    34  29  81 NE6       30.50R WCI  29
FRONT RANGE AP NOT AVBL
ERIE MUNI ARPT CLOUDY    37  30  77 CALM      30.50R
BOULDER MUN AP CLOUDY    36  27  69 CALM      30.50R
CENTENNIAL     CLOUDY    36  27  69 N6        30.49R
BROOMFIELD     NOT AVBL
FORT COLLINS   MOCLDY    36  27  69 E3        30.50R
LONGMONT       CLOUDY    38  30  72 CALM      30.52R
$$

COZ041-046-047-076>085-087-088-291600-
...PIKES PEAK/PALMER DIVIDE AND SOUTHERN FOOTHILLS...

CITY           SKY/WX    TMP DP  RH WIND       PRES   REMARKS
COLO. SPRINGS  CLOUDY    36  28  73 CALM      30.49R
A. F. ACADEMY  CLOUDY    34  26  71 NW2       30.47R
ELLICOTT       CLOUDY   N/A N/A N/A CALM      30.48R
FALCON         CLOUDY    33  26  73 CALM      30.49R
FORT CARSON    CLOUDY    37  28  70 SW5       30.48R
LIMON          CLOUDY    33  26  75 N9        30.48R WCI  25
MONUMENT HILL  CLOUDY    30  28  93 CALM      30.47R
TRINIDAD       CLOUDY    36  29  75 CALM      30.49R
$$

COZ042>045-048>051-090-091-291600-
...NORTHEAST COLORADO...

CITY           SKY/WX    TMP DP  RH WIND       PRES   REMARKS
GREELEY ARPT   CLOUDY    36  25  64 W5        30.48R
AKRON          CLOUDY    35  23  61 NW8       30.47R WCI  29
BURLINGTON     CLOUDY    33  27  78 NW7       30.47R WCI  27
WRAY           CLEAR     33  27  78 NW10      30.48R WCI  24
STERLING       MOCLDY    37  28  70 NW10      30.46S
HOLYOKE        CLEAR     30  27  86 NW6       30.48R WCI  24
FORT MORGAN    CLOUDY    35  27  73 CALM      30.49R
$$

COZ086-089-092>099-291600-
...SOUTHEAST COLORADO...

CITY           SKY/WX    TMP DP  RH WIND       PRES   REMARKS
PUEBLO         CLOUDY    38  29  70 NW3       30.49R
LA JUNTA       CLOUDY    40  30  67 W7        30.49R
LAMAR          CLOUDY    37  31  78 SW5       30.48R
SPRINGFIELD      N/A     36  27  69 N7        30.48R
$$



USA.gov is the U.S. government's official web portal to all federal, state and local government web resources and services.